Regional Weather Roundup
Issued by NWS

Home | Current Version | Previous Version | Graphics & Text | Print | Product List | Glossary On
Versions: 1 2 3 4 5 6 7 8 9 10 11 12 13 14 15 16 17 18 19 20 21 22 23 24 25 26 27 28 29 30 31 32 33 34 35 36 37 38 39 40 41 42 43 44 45 46 47 48 49 50
000
ASUS43 KFSD 292210
RWRSD

WEATHER ROUNDUP FOR SOUTH DAKOTA
NATIONAL WEATHER SERVICE SIOUX FALLS SD
500 PM CDT MON JUN 29 2015

NOTE: "FAIR" INDICATES FEW OR NO CLOUDS BELOW 12,000 FEET WITH NO
SIGNIFICANT WEATHER AND/OR OBSTRUCTIONS TO VISIBILITY.


SDZ001>005-009-010-012>017-292300-
NORTHWEST AND NORTH CENTRAL SOUTH DAKOTA

CITY           SKY/WX    TMP DP  RH WIND       PRES   REMARKS
BUFFALO          N/A     93  55  27 W13       29.96F
FAITH            N/A     92  58  31 VRB5      30.00F
MOBRIDGE       SUNNY     94  55  26 NW10      29.92S
$$

SDZ012>016-024>037-041>051-057-063-072>074-292300-
SOUTHWEST AND SOUTH CENTRAL SOUTH DAKOTA

CITY           SKY/WX    TMP DP  RH WIND       PRES   REMARKS
RAPID CTY ARPT SUNNY     88  55  32 E7        30.05F
PIERRE         SUNNY     90  57  32 NW10      29.93F
CUSTER         TSTM      61  59  93 NE12      30.27R
ELLSWORTH AFB  SUNNY     88  57  34 NE6       30.05F
PHILIP         SUNNY     91  61  36 CALM      29.99F
PINE RIDGE     SUNNY     88  58  36 NW5       30.07F
SPEARFISH      FAIR      84  63  48 E6        30.12F
WINNER         FAIR      93  48  21 N13G21    29.97F
$$

SDZ004>011-016>023-039-040-292300-
NORTHEAST SOUTH DAKOTA

CITY           SKY/WX    TMP DP  RH WIND       PRES   REMARKS
ABERDEEN       SUNNY     89  60  37 N15       29.89F
WATERTOWN      SUNNY     81  60  48 NW12      29.91S
BROOKINGS      SUNNY     79  63  57 NW12      29.93S
SISSETON         N/A     82  61  48 N14       29.85F
$$

SDZ017-020-022-023-036>040-048>070-292300-
SOUTHEAST SOUTH DAKOTA

CITY           SKY/WX    TMP DP  RH WIND       PRES   REMARKS
SIOUX FALLS    SUNNY     82  57  42 NW8       29.91F HAZE
HURON          SUNNY     87  63  44 N8        29.90F
CHAMBERLAIN    SUNNY     91  56  30 NW14G20   29.94S
MITCHELL       SUNNY     86  62  44 N5        29.92F
YANKTON        SUNNY     84  59  42 N10       29.91F
$$

ABBREVIATIONS USED IN REMARKS
   TC - TEMPERATURE IN CELSIUS
  WCI - WIND CHILL INDEX
   HX - HEAT INDEX
  VSB - VISIBILITY




USA.gov is the U.S. government's official web portal to all federal, state and local government web resources and services.